Home > Weather > Oberpullendorf > Past weeks

Flag for Austria Past Weather in Oberpullendorf, Burgenland, Austria — Yesterday and Last 2 Weeks

Now
72 °F

Mild.


Feels Like: 75 °F
Forecast: 61 / 85 °F
Wind: 1 mph from Northwest

Location: Eisenstadt

Current Time: Jul 29, 2016 at 9:56:39 PM

Latest Report: Jul 29, 2016 at 9:00 PM


Visibility: N/A

Pressure: 29.93 "Hg

Humidity: 67%

Dew Point: 61 °F

Location of OberpullendorfLocation

Past Weather in Oberpullendorf — Graph

°F

Oberpullendorf Temperature Yesterday

Maximum temperature yesterday: 81 °F (at 3:00 PM)
Minimum temperature yesterday: 67 °F (at 6:00 AM)
Average temperature yesterday: 73 °F

High & Low Weather Summary for the Past Weeks

 TemperatureHumidityPressure
High86 °F (Jul 21, 3:00 PM)95% (Jul 23, 2:00 AM)30.19 "Hg (Jul 23, 2:00 AM)
Low57 °F (Jul 15, 5:00 AM)40% (Jul 19, 5:00 PM)29.89 "Hg (Jul 27, 6:00 PM)
Average72 °F67%30.02 "Hg
* Reported Jul 14 8:00 PM — Jul 29 8:00 PM, Oberpullendorf, Weather by CustomWeather, © 2016

Note: Actual official high and low records may vary slightly from our data, if they occured in-between our weather recording intervals... More about our weather records

Advertising

Oberpullendorf Weather History for the Previous 24 Hours

Scroll right to see more
 ConditionsComfort  
Time TempWeatherWind HumidityBarometerVisibility
8:00 PM
Fri, Jul 29
77 °FPassing clouds.1 mph58%29.91 "Hg16 mi
7:00 PM82 °FPassing clouds.2 mph50%29.90 "Hg16 mi
6:00 PM83 °FWarm.1 mph51%29.90 "HgN/A
5:00 PM80 °FPartly sunny.2 mph57%29.90 "Hg14 mi
4:00 PM78 °FWarm.2 mph60%29.92 "HgN/A
3:00 PM82 °FWarm.2 mph46%29.90 "HgN/A
2:00 PM83 °FScattered clouds.No wind42%29.91 "Hg16 mi
1:00 PM82 °FWarm.3 mph41%29.93 "HgN/A
12:00 PM82 °FWarm.5 mph42%29.94 "HgN/A
11:00 AM80 °FScattered clouds.2 mph48%29.96 "Hg16 mi
10:00 AM77 °FWarm.2 mph53%29.96 "HgN/A
9:00 AM72 °FMild.1 mph66%29.98 "HgN/A
8:00 AM70 °FOvercast.No wind67%29.97 "Hg12 mi
7:00 AM69 °FOvercast.1 mph73%29.96 "Hg12 mi
6:00 AM68 °FOvercast.1 mph72%29.96 "Hg12 mi
5:00 AM68 °FOvercast.3 mph73%29.96 "Hg12 mi
4:00 AM68 °FPassing clouds.3 mph72%29.96 "Hg12 mi
3:00 AM68 °FMild.3 mph70%29.95 "HgN/A
2:00 AM68 °FMild.5 mph71%29.95 "HgN/A
1:00 AM70 °FMild.2 mph65%29.95 "HgN/A
12:00 AM71 °FMild.3 mph68%29.96 "HgN/A
11:00 PM
Thu, Jul 28
70 °FPassing clouds.3 mph69%29.96 "Hg9 mi
10:00 PM70 °FMild.5 mph68%29.96 "HgN/A
9:00 PM71 °FMild.3 mph66%29.96 "HgN/A
Weather by CustomWeather, © 2016

See weather overviewHow to use our weather pages